OK1CBR-13 Weather Reports


Display with metric or nautical units.
time (UTC)temp
F
wind
direction
speed
MPH
gust
MPH
rain 1hr
in
rain 24hr
in
rain mn
in
humidity
%
barometer
mb
20260906002233 56 0.0 0.0 0.00 0.00 0.00 96 1023.8
20260906001233 56 0.0 0.0 0.00 0.00 0.00 94 1023.7
20260906000234 56 0.0 0.0 0.00 0.00 0.00 91 1023.7
20260905235233 57 0.0 0.0 0.00 0.00 0.00 89 1023.6
20260905234233 57 0.0 0.0 0.00 0.00 0.00 86 1023.6
20260905233233 58 0.0 0.0 0.00 0.00 0.00 84 1023.5
20260905232233 58 0.0 0.0 0.00 0.00 0.00 81 1023.5
20260905231233 59 0.0 0.0 0.00 0.00 0.00 79 1023.5
20260905230233 59 0.0 0.0 0.00 0.00 0.00 78 1023.4
20260905225233 59 0.0 0.0 0.00 0.00 0.00 77 1023.3
20260905224233 59 0.0 0.0 0.00 0.00 0.00 76 1023.3
20260905223233 59 0.0 0.0 0.00 0.00 0.00 76 1023.2
20260905222233 59 0.0 0.0 0.00 0.00 0.00 76 1023.2
20260905221233 59 0.0 0.0 0.00 0.00 0.00 74 1023.2
20260905220233 60 0.0 0.0 0.00 0.00 0.00 71 1023.1
20260905215233 61 0.0 0.0 0.00 0.00 0.00 70 1022.9
20260905214233 61 0.0 0.0 0.00 0.00 0.00 68 1022.8
20260905213233 61 0.0 0.0 0.00 0.00 0.00 66 1022.7
20260905212233 61 0.0 0.0 0.00 0.00 0.00 63 1022.6
20260905211233 62 0.0 0.0 0.00 0.00 0.00 63 1022.6
20260905210233 62 0.0 0.0 0.00 0.00 0.00 61 1022.6
20260905205233 62 0.0 0.0 0.00 0.00 0.00 60 1022.3
20260905204233 62 0.0 0.0 0.00 0.00 0.00 59 1022.3
20260905203233 62 0.0 0.0 0.00 0.00 0.00 59 1022.1
20260905202233 62 0.0 0.0 0.00 0.00 0.00 59 1022.0
20260905201233 62 0.0 0.0 0.00 0.00 0.00 59 1021.7
20260905200233 62 0.0 0.0 0.00 0.00 0.00 58 1021.6
20260905195233 63 0.0 0.0 0.00 0.00 0.00 57 1021.5
20260905194233 62 0.0 0.0 0.00 0.00 0.00 57 1021.4
20260905193233 62 0.0 0.0 0.00 0.00 0.00 58 1021.2
20260905192233 62 0.0 0.0 0.00 0.00 0.00 59 1021.1
20260905191233 62 0.0 0.0 0.00 0.00 0.00 59 1021.1
20260905190233 61 0.0 0.0 0.00 0.00 0.00 60 1021.0
20260905185233 62 0.0 0.0 0.00 0.00 0.00 60 1021.0
20260905184233 61 0.0 0.0 0.00 0.00 0.00 60 1020.7
20260905183233 62 0.0 0.0 0.00 0.00 0.00 58 1020.7
20260905182233 63 0.0 0.0 0.00 0.00 0.00 54 1020.6
20260905181233 64 0.0 0.0 0.00 0.00 0.00 52 1020.5
20260905180233 64 0.0 0.0 0.00 0.00 0.00 51 1020.3
20260905175233 65 0.0 0.0 0.00 0.00 0.00 49 1020.1
20260905174233 65 0.0 0.0 0.00 0.00 0.00 49 1019.9
20260905173233 66 0.0 0.0 0.00 0.00 0.00 46 1019.8
20260905172233 67 0.0 0.0 0.00 0.00 0.00 45 1019.8
20260905171233 67 0.0 0.0 0.00 0.00 0.00 44 1019.6
20260905170234 68 0.0 0.0 0.00 0.00 0.00 43 1019.5
20260905165234 69 0.0 0.0 0.00 0.00 0.00 42 1019.4
20260905164234 69 0.0 0.0 0.00 0.00 0.00 41 1019.3
20260905163234 70 0.0 0.0 0.00 0.00 0.00 42 1019.2
20260905162233 71 0.0 0.0 0.00 0.00 0.00 40 1019.1
20260905161233 72 0.0 0.0 0.00 0.00 0.00 38 1019.0
20260905160234 72 0.0 0.0 0.00 0.00 0.00 38 1019.0
20260905155233 72 0.0 0.0 0.00 0.00 0.00 39 1018.9
20260905154233 73 0.0 0.0 0.00 0.00 0.00 38 1018.9
20260905153234 73 0.0 0.0 0.00 0.00 0.00 38 1018.8
20260905152234 74 0.0 0.0 0.00 0.00 0.00 38 1018.8
20260905151233 74 0.0 0.0 0.00 0.00 0.00 37 1018.6
20260905150234 74 0.0 0.0 0.00 0.00 0.00 38 1018.7
20260905145234 73 0.0 0.0 0.00 0.00 0.00 38 1018.7
20260905144234 75 0.0 0.0 0.00 0.00 0.00 38 1018.6
20260905143234 75 0.0 0.0 0.00 0.00 0.00 39 1018.7
20260905142234 75 0.0 0.0 0.00 0.00 0.00 38 1018.6
20260905141234 74 0.0 0.0 0.00 0.00 0.00 39 1018.6
20260905140234 75 0.0 0.0 0.00 0.00 0.00 40 1018.5
20260905135234 74 0.0 0.0 0.00 0.00 0.00 40 1018.5
20260905134234 75 0.0 0.0 0.00 0.00 0.00 40 1018.6
20260905133234 73 0.0 0.0 0.00 0.00 0.00 41 1018.7
20260905132234 73 0.0 0.0 0.00 0.00 0.00 41 1018.7
20260905131234 75 0.0 0.0 0.00 0.00 0.00 42 1018.8
20260905130234 75 0.0 0.0 0.00 0.00 0.00 40 1018.8
20260905125234 74 0.0 0.0 0.00 0.00 0.00 41 1018.9
20260905124234 73 0.0 0.0 0.00 0.00 0.00 43 1018.9
20260905123236 73 0.0 0.0 0.00 0.00 0.00 41 1019.0
20260905122232 74 0.0 0.0 0.00 0.00 0.00 42 1019.1
20260905121232 71 0.0 0.0 0.00 0.00 0.00 46 1019.2
20260905120232 72 0.0 0.0 0.00 0.00 0.00 45 1019.2
20260905115232 74 0.0 0.0 0.00 0.00 0.00 50 1019.3
20260905114232 74 0.0 0.0 0.00 0.00 0.00 47 1019.3
20260905113232 74 0.0 0.0 0.00 0.00 0.00 44 1019.3
20260905112232 72 0.0 0.0 0.00 0.00 0.00 47 1019.3
20260905111232 73 0.0 0.0 0.00 0.00 0.00 44 1019.3
20260905110232 72 0.0 0.0 0.00 0.00 0.00 48 1019.4
20260905105232 71 0.0 0.0 0.00 0.00 0.00 47 1019.4
20260905104233 69 0.0 0.0 0.00 0.00 0.00 50 1019.4
20260905103233 71 0.0 0.0 0.00 0.00 0.00 50 1019.4
20260905102232 70 0.0 0.0 0.00 0.00 0.00 51 1019.4
20260905101233 70 0.0 0.0 0.00 0.00 0.00 52 1019.4
20260905100233 69 0.0 0.0 0.00 0.00 0.00 56 1019.3
20260905095233 70 0.0 0.0 0.00 0.00 0.00 60 1019.3
20260905094235 69 0.0 0.0 0.00 0.00 0.00 61 1019.3
20260905093235 68 0.0 0.0 0.00 0.00 0.00 62 1019.2
20260905092233 68 0.0 0.0 0.00 0.00 0.00 67 1019.3
20260905091233 66 0.0 0.0 0.00 0.00 0.00 75 1019.3
20260905090233 64 0.0 0.0 0.00 0.00 0.00 79 1019.3
20260905085233 65 0.0 0.0 0.00 0.00 0.00 79 1019.3
20260905084233 66 0.0 0.0 0.00 0.00 0.00 77 1019.3
20260905083233 67 0.0 0.0 0.00 0.00 0.00 75 1019.2
20260905082233 66 0.0 0.0 0.00 0.00 0.00 80 1019.0
20260905081233 65 0.0 0.0 0.00 0.00 0.00 82 1018.8
20260905080233 65 0.0 0.0 0.00 0.00 0.00 85 1018.7
20260905075233 65 0.0 0.0 0.00 0.00 0.00 87 1018.7
20260905074233 65 0.0 0.0 0.00 0.00 0.00 86 1018.6
20260905073233 64 0.0 0.0 0.00 0.00 0.00 92 1018.6
20260905072233 62 0.0 0.0 0.00 0.00 0.00 10 1018.7
20260905071233 61 0.0 0.0 0.00 0.00 0.00 10 1018.6
20260905070233 61 0.0 0.0 0.00 0.00 0.00 10 1018.6
20260905065233 60 0.0 0.0 0.00 0.00 0.00 10 1018.6
20260905064233 60 0.0 0.0 0.00 0.00 0.00 10 1018.6
20260905063233 60 0.0 0.0 0.00 0.00 0.00 10 1018.5
20260905062233 58 0.0 0.0 0.00 0.00 0.00 10 1018.5
20260905061233 57 0.0 0.0 0.00 0.00 0.00 10 1018.4
20260905060233 57 0.0 0.0 0.00 0.00 0.00 10 1018.3
20260905055233 57 0.0 0.0 0.00 0.00 0.00 10 1018.2
20260905054233 56 0.0 0.0 0.00 0.00 0.00 10 1018.1
20260905053233 56 0.0 0.0 0.00 0.00 0.00 10 1017.9
20260905052233 56 0.0 0.0 0.00 0.00 0.00 10 1017.7
20260905051233 56 0.0 0.0 0.00 0.00 0.00 10 1017.5
20260905050233 56 0.0 0.0 0.00 0.00 0.00 10 1017.4
20260905045233 56 0.0 0.0 0.00 0.00 0.00 10 1017.3
20260905044233 56 0.0 0.0 0.00 0.00 0.00 10 1016.9
20260905043233 56 0.0 0.0 0.00 0.00 0.00 10 1017.0
20260905042233 56 0.0 0.0 0.00 0.00 0.00 10 1017.3
20260905041233 57 0.0 0.0 0.00 0.00 0.00 10 1017.2
20260905040233 57 0.0 0.0 0.00 0.00 0.00 10 1016.9
20260905035233 57 0.0 0.0 0.00 0.00 0.00 10 1016.8
20260905034233 58 0.0 0.0 0.00 0.00 0.00 10 1017.2
20260905033233 59 0.0 0.0 0.00 0.00 0.00 10 1017.2
20260905032233 59 0.0 0.0 0.00 0.00 0.00 10 1017.2
20260905031233 59 0.0 0.0 0.00 0.00 0.00 10 1016.8
20260905030233 60 0.0 0.0 0.00 0.00 0.00 10 1016.1
20260905025233 60 0.0 0.0 0.00 0.00 0.00 10 1016.0
20260905024233 60 0.0 0.0 0.00 0.00 0.00 10 1016.0
20260905023233 60 0.0 0.0 0.00 0.00 0.00 10 1015.9
20260905022233 60 0.0 0.0 0.00 0.00 0.00 10 1015.8
20260905021233 61 0.0 0.0 0.00 0.00 0.00 10 1015.9
20260905020233 62 0.0 0.0 0.00 0.00 0.00 10 1015.5
20260905015233 62 0.0 0.0 0.00 0.00 0.00 10 1015.6
20260905014233 63 0.0 0.0 0.00 0.00 0.00 10 1015.8
20260905013233 63 0.0 0.0 0.00 0.00 0.00 10 1015.5
20260905012233 63 0.0 0.0 0.00 0.00 0.00 10 1015.7
20260905011233 63 0.0 0.0 0.00 0.00 0.00 10 1015.6
20260905010234 63 0.0 0.0 0.00 0.00 0.00 10 1015.6
20260905005233 63 0.0 0.0 0.00 0.00 0.00 10 1015.3
20260905004234 63 0.0 0.0 0.00 0.00 0.00 10 1015.0
20260905003237 63 0.0 0.0 0.00 0.00 0.00 10 1015.0